千帆星座-215(QIANFAN-215)

导读

QIANFAN-215(NORAD编号69814)是中国千帆低轨互联网星座的组成卫星,由上海垣信卫星科技有限公司运营,2026年7月5日于海南商业航天发射场搭载长征八号甲运载火箭,随千帆极轨15组卫星发射入轨,目前运行状态正常。 该卫星属于低轨道通信卫星,主要承担全球互联网接入服务任务,重点为偏远地区、海洋及高山等地面网络覆盖盲区提供高速低延迟的通信支持,助力缩小全球数字鸿沟,是千帆星座推进全球通信网络覆盖建设的重要组成单元。

基本信息
目录编号:
69814
目录名称:
QIANFAN-215
国际标识:
2026-153Q
轨道中心:
EARTH
卫星名称:
千帆星座-215
卫星全名:
千帆星座-215(QIANFAN-215)
卫星状态:
在轨 (已飞行63 天)
发射日期:
2026-07-04 UTC
国别 :
中国 (CN)
星等 :
--
轨道信息
数据来源 国际轨道数据 AOE轨道数据
星历时间 2026-09-05T05:42:22+0800
9小时前
查看轨道信息
2026-08-30T03:00:00+0800
6天前
查看轨道信息
半长轴 7197.397km 7197.416km
偏心率 0.0009068 0.0010008
轨道倾角 88.998° 88.997°
近地点辐角 42.378° 60.176°
升交点赤经 353.113° 353.808°
平近点角 317.811° 351.863°
近地点 812.733km 812.075km
远地点 825.787km 826.483km
周期 101.280分钟 101.280分钟
每日圈数 14.218035 14.217979
详细信息
卫星平台:
215
覆盖范围:
全球
运营商:
上海垣信卫星科技有限公司
运营商所在国:
中国
使用方式:
暂无
卫星简介
千帆星座,也被称为“G60星链”计划,是中国版“星链”的重要组成部分,旨在打造一个由1.4万多颗低轨宽频多媒体卫星构成的庞大星座。千帆星座计划由上海垣信卫星科技有限公司负责实施,于2023年启动建设。该项目是我国第二个低轨卫星大星座,旨在通过构建庞大的卫星网络,为全球用户提供高质量的通信和宽带互联网服务。
2D轨道图
3D轨道图
轨道高度分析图
轨道倾角分析图
轨道综合分析图
查看轨道综合分析图
交会数据列表
事件ID 空间交会对象 最接近时刻(TCA) 交会距离 交会风险概率(CRP) 交会风险指数(CRI) 操作
CDM_260830-212403-056006-981424
2026-08-30T
21:24:10+0000
1.682 km
极远距离
4.219484E-6 低风险 0.48
CDM_260906-102901-552106-981421
SL-3 DEB (15521)
2026-09-06T
10:29:26+0000
1.989 km
极远距离
2.608245E-6 低风险 0.43
CDM_260901-054803-132406-981421
2026-09-01T
05:48:21+0000
2.289 km
极远距离
2.088121E-6 低风险 0.41
CDM_260901-063903-132406-981421
2026-09-01T
06:39:05+0000
2.339 km
极远距离
1.996499E-6 低风险 0.41
CDM_260830-071003-197206-981421
2026-08-30T
07:10:47+0000
2.437 km
极远距离
1.234328E-6 低风险 0.37
CDM_260905-091803-376606-981423
2026-09-05T
09:18:12+0000
2.764 km
极远距离
6.107566E-7 极低风险 0.31